Regional Weather Roundup
Issued by NWS Columbia, SC

Home | Current Version | Previous Version | Text Only | Print | Product List | Glossary On
Versions: 1 2 3 4 5 6 7 8 9 10 11 12 13 14 15 16 17 18 19 20 21 22 23 24 25 26 27
000
ASUS42 KCAE 301510
RWRCAE
REGIONAL WEATHER ROUNDUP
NATIONAL WEATHER SERVICE COLUMBIA SC
1100 AM EDT MON MAY 30 2016

NOTE: "FAIR" INDICATES FEW OR NO CLOUDS BELOW 12,000 FEET WITH NO
SIGNIFICANT WEATHER AND/OR OBSTRUCTIONS TO VISIBILITY.

NOT ALL STATIONS ARE QUALITY CONTROLLED BY THE NATIONAL
WEATHER SERVICE. USE DATA WITH CAUTION...ESPECIALLY
DEWPOINT OBSERVATIONS.

SCZ001>056-GAZ040-063>065-077-301600-
...UPSTATE SOUTH CAROLINA...

CITY           SKY/WX    TMP DP  RH WIND       PRES   REMARKS
ANDERSON       SUNNY     78  63  59 VRB3      30.03F
LIBERTY        MOSUNNY   77  64  65 CALM      30.03F
SPARTANBURG    SUNNY     75  61  60 N10G16    30.03S
CLEMSON        SUNNY     78  65  63 E6        30.04F
GREENVILLE     CLOUDY    77  59  53 N5        30.05F
GREENWOOD      MOSUNNY   78  64  61 NW8       30.04S
GREER          CLOUDY    77  63  61 N7        30.03F
ROCK HILL      PTSUNNY   76  66  71 N8        30.01F
CHESTER        PTSUNNY   73  63  68 N9        30.01F
LAURENS        MOSUNNY   73  64  73 N9        30.02F


...CENTRAL SOUTH CAROLINA...

CITY           SKY/WX    TMP DP  RH WIND       PRES   REMARKS
COLUMBIA APT   PTSUNNY   77  66  68 N8        29.97S
COLUMBIA OWENS CLOUDY    73  65  75 N7        29.98S
MCENTIRE ANGB  LGT RAIN  70  68  94 NW8       29.97S
ORANGEBURG     LGT RAIN  71  67  87 VRB5      29.96F
SUMTER SHAW    CLOUDY    71  68  91 N9        29.93S
NEWBERRY       PTSUNNY   73  66  78 N8        30.03S
AIKEN          CLOUDY    73  64  73 N8        30.02F
BARNWELL       FAIR      81  73  78 W9        29.98F
MANNING        RAIN      70  68  94 N5        29.93S
LANCASTER      PTSUNNY   73  70  88 N7        30.00S
WINNSBORO      CLOUDY    75  66  73 N6        29.99S


...EASTERN AND COASTAL SOUTH CAROLINA...

CITY           SKY/WX    TMP DP  RH WIND       PRES   REMARKS
MYRTLE BEACH   PTSUNNY   79  66  65 S14       29.95S
N MYRTLE BCH   LGT RAIN  76  71  85 S8        29.94S
CONWAY         CLOUDY    75  70  83 E5        29.93F
MARION         CLOUDY    77  70  78 E5        29.94S
HARTSVILLE     CLOUDY    70  68  94 N7        29.95F
FLORENCE       CLOUDY    76  71  85 E7        29.94S
DARLINGTON     LGT RAIN  72  70  93 N13       29.95F
CHARLESTON APT CLOUDY    73  68  84 W8        29.93F
MOUNT PLEASANT CLOUDY    73  70  88 W6        29.93F FOG
WALTERBORO     CLOUDY    72  72 100 NW8       29.97S
BEAUFORT       PTSUNNY   76  69  79 NW13      29.96S


...EASTERN GEORGIA...

CITY           SKY/WX    TMP DP  RH WIND       PRES   REMARKS
AUGUSTA BUSH F PTSUNNY   77  66  68 VRB6      30.00S
AUGUSTA DANIEL MOSUNNY   78  65  63 NW12      30.01S
THOMSON        MOSUNNY   81  67  63 NW8       30.06S
WASHINGTON     FAIR      81  66  61 N8        30.03S
CLAXTON        FAIR      80  69  69 W10       29.99F
SYLVANIA       SUNNY     79  70  73 NW8       29.99F
STATESBORO     MOSUNNY   78  71  78 NW8       29.99S
SAVANNAH       PTSUNNY   80  67  64 NW12      29.97F


...SOUTHERN NORTH CAROLINA...

CITY           SKY/WX    TMP DP  RH WIND       PRES   REMARKS
CHARLOTTE      PTSUNNY   75  65  70 N9        30.02F
MONROE         PTSUNNY   73  66  78 N10       30.00S
WADESBORO      CLOUDY    72  68  88 N7        29.99S
ROCKINGHAM     CLOUDY    71  70  96 NE6       29.98S
RUTHERFORDTON  SUNNY     75  63  64 CALM      30.06S
ASHEVILLE      SUNNY     77  57  50 N13       30.08F

$$




USA.gov is the U.S. government's official web portal to all federal, state and local government web resources and services.